Карточка аэропорта USNN

Внимание!
Информация на этой странице в стадии наполнения.
Если вы не увидели какой-то информации, или заметили неточность - пожалуйста сообщите нам!
Спасибо!
Команда RU-STAFF
Название аэропортаНижневартовск
Название аэропорта (англ.)Nizhnevartovsk
Превышение177 ft. (53.9 m.)
Координаты60°57', 76°28.998'
Высота перехода800m
Эшелон переходаQFE>=756mm:FL040; QFE<756=>729:FL050; QFE<729:FL060
Коды ответчика5630-5633
Зона ОрВДТюмень РПИ (USTV)
Данные METARUSNN 231800Z 34003MPS CAVOK M11/M15 Q1029 R03/0///65 NOSIG RMK QFE768
Проноз погоды (TAF)USNN 231650Z 2318/2418 32003G10MPS 9999 BKN020 TEMPO 2318/2403 SCT003 BKN016CB
NOTAMshow/hide NOTAM
AWOS   TABLE

Информация о ВПП

ВПП Длина ВПП (м.) Покрытие Курс ВПП Частота ILS
033200Асфальтобетон26110.5
213200Асфальтобетон206111.9

Диспетчерские позиции

Позывной Наименование органа УВД Частота
USNN_TWRНижневартовск - Вышка118.100
USNN_APPНижневартовск - Круг120.400



Спутниковое изображение